SL-4 R/B

Last updated on Thu Sep 12 2024 00:02:12 GMT+0000 (Coordinated Universal Time)

1 39679U 14021B 24255.50791987 .00013530 00000+0 47232-3 0 9998 2 39679 51.6037 79.3767 0131006 303.8133 55.0427 15.22069811572900

Satellite not in orbit